[[{"header":{"parameterUnit":"m.s-1","parameterCategory":1,"la1":30.2991,"la2":30.254,"lo1":-89.0895,"lo2":-89.0444,"dy":0.0017,"dx":0.0017,"nx":28,"ny":28,"refTime":"2024-07-28T03:00:00:Z","depth":0,"parameterNumber":2,"parameterNumberName":"U-component_of_WINDS"},"data":[0,0,0,0,0,0,0,0,0,0,0,0,0,0,0,0,0,0,0,0,0,0,0,0,0,0,0,0,0,0,0,0,0,0,0,0,0,0,0,0,0,0,0,0,0,0,0,0,0,0,0,0,0,0,0,0,0,0,0.8633,0.8634,0,0.8667,0.8667,0.8668,0.867,0.8669,0.8669,0.8669,0.8702,0.8703,0.8704,0,0,0,0,0,0,0,0,0,0,0,0,0,0.8568,0.8569,0.8633,0.8634,0.8634,0.8667,0.8667,0.8668,0.867,0.8669,0.8669,0.8669,0.8701,0.8703,0.8704,0,0,0,0,0,0,0,0,0,0,0,0,0,0.8599,0.857,0.8633,0.8639,0.864,0.8667,0.8668,0.8668,0.867,0.8669,0.8669,0.8668,0.8701,0.8703,0.8705,0.8728,0,0,0.871,0.8711,0,0,0,0,0,0,0,0,0.8597,0.8601,0.8638,0.8639,0.864,0.8664,0.8657,0.8688,0.867,0.8659,0.8669,0.8668,0.869,0.8692,0.87,0.8729,0.873,0.871,0.8712,0.8712,0.8713,0,0,0,0,0,0,0,0.8595,0.86,0.8647,0.8638,0.864,0.8639,0.8643,0.8663,0.8677,0.866,0.866,0.8664,0.869,0.8698,0.8701,0.8731,0.871,0.8712,0.8713,0.8714,0.8778,0.8779,0,0,0,0,0,0,0.8592,0.8598,0.8646,0.8648,0.8617,0.8641,0.8645,0.8657,0.8677,0.8679,0.8664,0.8664,0.8695,0.8698,0.8702,0.8728,0.8712,0.8714,0.8715,0.8778,0.8778,0.8779,0,0,0,0,0,0,0.859,0.8596,0.8644,0.8623,0.8629,0.8643,0.8656,0.8658,0.8666,0.868,0.8683,0.867,0.8695,0.8699,0.8721,0.873,0.8715,0.8717,0.8777,0.8778,0.8779,0.8782,0,0,0,0,0,0,0.8589,0.8596,0.8605,0.8623,0.863,0.8663,0.8656,0.8659,0.8669,0.8669,0.8686,0.8689,0.8695,0.8718,0.8722,0.8732,0.8718,0.8776,0.8777,0.8778,0.8782,0.8783,0.8785,0,0,0,0,0,0.8586,0.8605,0.8606,0.8611,0.8642,0.8664,0.8668,0.8675,0.867,0.8679,0.8688,0.8688,0.8728,0.872,0.8725,0.8735,0.8776,0.8777,0.8778,0.8781,0.8783,0.8785,0,0,0,0,0,0,0.8588,0.8608,0.8608,0.8634,0.8647,0.8664,0.8676,0.8677,0.8692,0.8691,0.8699,0.8703,0.8723,0.8732,0.8723,0.8757,0.8751,0.8754,0.8751,0.8753,0.8755,0.8752,0.872,0,0,0,0,0,0.8591,0.8608,0.8624,0.8644,0.8651,0.8662,0.8672,0.8676,0.869,0.8696,0.8706,0.8719,0.8735,0.8745,0.876,0.8783,0.8786,0.8792,0.8794,0.8795,0.8797,0.8808,0.881,0.8783,0.8783,0.8783,0,0,0.8598,0.8611,0.8621,0.8645,0.8656,0.8671,0.8667,0.8685,0.8696,0.8698,0.8719,0.8727,0.8742,0.8764,0.8774,0.8771,0.8805,0.8797,0.8798,0.8799,0.881,0.8812,0.8814,0.8784,0.8784,0.8784,0,0,0.8618,0.8631,0.8648,0.8659,0.8675,0.8682,0.8687,0.8703,0.8709,0.873,0.8731,0.8744,0.8771,0.8781,0.879,0.8812,0.8812,0.8817,0.8825,0.8836,0.8838,0.884,0.8846,0.8849,0.8819,0.8819,0.8819,0,0.8625,0.8649,0.8657,0.8674,0.8684,0.8686,0.8703,0.8713,0.8734,0.874,0.8737,0.8769,0.878,0.8803,0.8808,0.8816,0.882,0.8815,0.8837,0.8839,0.8841,0.8847,0.885,0.8819,0.8819,0.8819,0.8819,0,0.8655,0.8672,0.8684,0.8703,0.8715,0.8732,0.8741,0.8751,0.8754,0.8761,0.8781,0.8794,0.881,0.8817,0.882,0.884,0.8837,0.8836,0.8829,0.8844,0.885,0.8852,0.882,0.882,0.8819,0.8819,0,0,0.8678,0.87,0.8704,0.8712,0.873,0.8743,0.8759,0.8775,0.8783,0.8797,0.881,0.8832,0.883,0.8839,0.8844,0.8853,0.8868,0.885,0.885,0.8852,0.8889,0.889,0.8892,0.8869,0.8869,0.887,0.8887,0,0.8699,0.8728,0.8735,0.876,0.8774,0.8777,0.8791,0.8802,0.8809,0.8822,0.8829,0.8844,0.8841,0.8847,0.8856,0.8864,0.8875,0.8863,0.8879,0.888,0.8875,0.8896,0.8897,0.8913,0.889,0.889,0.8891,0,0.8727,0.8741,0.8767,0.8782,0.8788,0.8801,0.8815,0.8828,0.8841,0.8845,0.8855,0.8858,0.8874,0.8867,0.8888,0.888,0.8887,0.8891,0.8892,0.8893,0.8885,0.8896,0.8919,0.892,0.8895,0.8894,0.8894,0,0.8739,0.8764,0.8783,0.879,0.8807,0.8816,0.8823,0.8835,0.8844,0.8857,0.8863,0.8877,0.8885,0.8896,0.8902,0.8897,0.8922,0.8916,0.8925,0.8924,0.8929,0.8929,0.8952,0.8936,0.8936,0.8936,0.8936,0,0.8761,0.8776,0.8788,0.8799,0.8816,0.8823,0.884,0.8847,0.8858,0.887,0.8873,0.8884,0.8892,0.8904,0.8909,0.8925,0.8929,0.8932,0.8933,0.8931,0.893,0.8935,0.8933,0.8936,0.8936,0.8936,0.8936,0,0.8776,0.8785,0.8805,0.8819,0.8823,0.8835,0.8847,0.8858,0.8864,0.8879,0.8883,0.8894,0.8908,0.8915,0.8933,0.8936,0.8953,0.8954,0.8949,0.8949,0.8957,0.8955,0.8983,0.8986,0.8969,0.8969,0.8969,0,0.8789,0.8801,0.8816,0.8825,0.8832,0.8846,0.8855,0.8862,0.8871,0.8886,0.8894,0.8909,0.892,0.8942,0.8951,0.8964,0.8965,0.8973,0.8967,0.8964,0.8963,0.8962,0.8962,0.8974,0.8974,0.8974,0.8975,0,0.881,0.8813,0.8826,0.8841,0.8851,0.8863,0.8874,0.888,0.8889,0.8899,0.8913,0.8922,0.894,0.8954,0.8967,0.8974,0.8975,0.8977,0.8979,0.8977,0.8973,0.8974,0.8951,0.8976,0.8976,0.8976,0.8976,0.8975,0.8824,0.8834,0.8846,0.886,0.8869,0.8879,0.8889,0.8897,0.8909,0.8924,0.8928,0.8942,0.8954,0.8972,0.8979,0.8991,0.8989,0.8993,0.8993,0.8994,0.8994,0.8972,0.8993,0.8993,0.8993,0.8993,0.8993,0,0.8844,0.8851,0.8864,0.888,0.889,0.8891,0.8903,0.8912,0.8925,0.8935,0.8947,0.8962,0.8975,0.8985,0.8998,0.9005,0.9006,0.9008,0.9007,0.9008,0.8995,0.8991,0.9007,0.9007,0.9007,0.9007,0.9007,0.9007,0.8855,0.8872,0.8876,0.8897,0.8905,0.8919,0.8926,0.8935,0.8943,0.8961,0.8972,0.8978,0.8988,0.9001,0.9013,0.9015,0.9019,0.9021,0.9023,0.9011,0.9009,0.9008,0.9004,0.9022,0.9022,0.9035,0.9036,0.9036]},{"header":{"parameterUnit":"m.s-1","parameterCategory":1,"la1":30.2991,"la2":30.254,"lo1":-89.0895,"lo2":-89.0444,"dy":0.0017,"dx":0.0017,"nx":28,"ny":28,"refTime":"2024-07-28T03:00:00:Z","depth":0,"parameterNumber":3,"parameterNumberName":"V-component_of_WINDS"},"data":[0,0,0,0,0,0,0,0,0,0,0,0,0,0,0,0,0,0,0,0,0,0,0,0,0,0,0,0,0,0,0,0,0,0,0,0,0,0,0,0,0,0,0,0,0,0,0,0,0,0,0,0,0,0,0,0,0,0,2.1455,2.1455,0,2.1493,2.1494,2.1494,2.1471,2.147,2.1469,2.1468,2.1506,2.1508,2.151,0,0,0,0,0,0,0,0,0,0,0,0,0,2.1357,2.1359,2.1454,2.1455,2.1455,2.1493,2.1494,2.1494,2.1471,2.147,2.1469,2.1467,2.1505,2.1507,2.151,0,0,0,0,0,0,0,0,0,0,0,0,0,2.1398,2.136,2.1454,2.1449,2.1448,2.1493,2.1494,2.1494,2.1472,2.147,2.1468,2.1467,2.1504,2.1507,2.151,2.1562,0,0,2.152,2.1521,0,0,0,0,0,0,0,0,2.1396,2.1402,2.1449,2.1449,2.1449,2.1476,2.1473,2.1517,2.1472,2.1463,2.1468,2.1466,2.1497,2.15,2.1511,2.1564,2.1566,2.152,2.1522,2.1523,2.1524,0,0,0,0,0,0,0,2.1393,2.14,2.147,2.145,2.145,2.1443,2.1447,2.1481,2.1489,2.1463,2.1462,2.1467,2.1497,2.1508,2.1512,2.1566,2.152,2.1522,2.1524,2.1526,2.166,2.1662,0,0,0,0,0,0,2.1391,2.1398,2.1469,2.1471,2.1418,2.1446,2.145,2.1469,2.1488,2.149,2.1468,2.1466,2.1504,2.1509,2.1513,2.1573,2.1523,2.1526,2.1528,2.1659,2.1661,2.1663,0,0,0,0,0,0,2.1389,2.1397,2.1467,2.1434,2.1442,2.1449,2.147,2.147,2.1482,2.1492,2.1493,2.1479,2.1503,2.1509,2.155,2.1574,2.1527,2.153,2.1656,2.1659,2.1662,2.1695,0,0,0,0,0,0,2.1386,2.1397,2.1418,2.1434,2.1444,2.1504,2.1472,2.1472,2.1488,2.1485,2.1502,2.1504,2.1502,2.1545,2.1553,2.1578,2.1532,2.1654,2.1658,2.1661,2.1692,2.1699,2.1705,0,0,0,0,0,2.1383,2.1426,2.1419,2.1428,2.147,2.1505,2.1511,2.1509,2.149,2.151,2.1516,2.1503,2.1571,2.155,2.1558,2.1584,2.1653,2.1657,2.1661,2.1689,2.1697,2.1704,0,0,0,0,0,0,2.1412,2.1428,2.142,2.1471,2.1487,2.1502,2.1527,2.1518,2.1539,2.1536,2.1531,2.1535,2.1577,2.1585,2.1561,2.1634,2.1609,2.1614,2.1628,2.1635,2.1642,2.1638,2.1535,0,0,0,0,0,2.1424,2.1452,2.1465,2.1507,2.1516,2.152,2.1535,2.1532,2.1548,2.1555,2.1564,2.158,2.1604,2.162,2.1644,2.1693,2.1695,2.1715,2.1721,2.1726,2.1731,2.1755,2.1764,2.1675,2.1675,2.1675,0,0,2.145,2.1462,2.148,2.1514,2.1526,2.1553,2.1526,2.1557,2.1577,2.156,2.1598,2.1605,2.1622,2.1667,2.1687,2.1674,2.1756,2.1731,2.1735,2.1737,2.176,2.1769,2.1776,2.1678,2.1678,2.1677,0,0,2.151,2.1523,2.1559,2.1572,2.159,2.1592,2.1601,2.1617,2.162,2.1659,2.1646,2.1669,2.1712,2.1724,2.1736,2.1798,2.1786,2.1806,2.1838,2.1862,2.1869,2.1875,2.1895,2.1903,2.1811,2.1811,2.1811,0,2.154,2.1582,2.1579,2.161,2.1624,2.161,2.1645,2.1657,2.1682,2.1691,2.1677,2.1729,2.174,2.1786,2.1801,2.1811,2.1819,2.1803,2.1868,2.1874,2.188,2.1899,2.1907,2.1813,2.1813,2.1812,2.1812,0,2.1616,2.1645,2.1671,2.1695,2.1712,2.1746,2.1746,2.1764,2.1759,2.1762,2.18,2.1812,2.1836,2.1847,2.1843,2.1892,2.1883,2.1869,2.1843,2.189,2.1908,2.1916,2.1816,2.1815,2.1814,2.1814,0,0,2.1697,2.1717,2.1727,2.1736,2.1755,2.1777,2.1808,2.1832,2.1846,2.1863,2.1888,2.1924,2.191,2.1923,2.192,2.1941,2.1986,2.1923,2.1923,2.1933,2.2039,2.2048,2.2057,2.1979,2.198,2.1982,2.2037,0,2.1757,2.1812,2.1809,2.1861,2.1886,2.1871,2.1898,2.1912,2.1915,2.1936,2.1939,2.1964,2.1945,2.1952,2.1973,2.1977,2.2007,2.1973,2.2001,2.2002,2.1996,2.2067,2.2078,2.2129,2.2044,2.2045,2.2046,0,2.1835,2.1854,2.1907,2.192,2.193,2.1955,2.1975,2.1996,2.201,2.201,2.2024,2.2017,2.2047,2.2021,2.2061,2.2037,2.2048,2.2052,2.2054,2.2055,2.2026,2.2069,2.2146,2.2153,2.2057,2.2056,2.2056,0,2.1885,2.1925,2.1961,2.197,2.1986,2.2003,2.201,2.2023,2.2036,2.2054,2.2062,2.2083,2.2094,2.211,2.2107,2.2089,2.2147,2.2122,2.2147,2.2147,2.216,2.2159,2.2238,2.2169,2.2169,2.2169,2.2169,0,2.1952,2.1985,2.1984,2.2006,2.2042,2.2038,2.2073,2.2078,2.2089,2.2111,2.21,2.212,2.2117,2.2137,2.2135,2.2167,2.2173,2.2173,2.2172,2.2173,2.2173,2.218,2.2175,2.2171,2.2171,2.217,2.217,0,2.2015,2.2016,2.2054,2.2065,2.2069,2.2094,2.2103,2.2124,2.2125,2.2153,2.2159,2.2162,2.2185,2.2184,2.2211,2.2209,2.2248,2.2244,2.2244,2.2242,2.2267,2.2264,2.2352,2.2363,2.2289,2.229,2.229,0,2.2057,2.2082,2.2095,2.2109,2.2117,2.214,2.2153,2.2149,2.2163,2.218,2.2198,2.222,2.2237,2.2274,2.2278,2.2297,2.2292,2.2321,2.2295,2.2295,2.229,2.2288,2.2289,2.2326,2.2327,2.2328,2.2328,0,2.213,2.2129,2.2149,2.2168,2.2185,2.22,2.2214,2.2226,2.2223,2.2239,2.2263,2.2276,2.2302,2.2323,2.2341,2.2348,2.2337,2.2337,2.2343,2.2344,2.2342,2.2342,2.2256,2.2335,2.2334,2.2334,2.2333,2.2333,2.2183,2.2203,2.2215,2.2237,2.2246,2.2259,2.2278,2.2282,2.2301,2.2322,2.2318,2.2344,2.2355,2.2378,2.2386,2.2405,2.2394,2.2404,2.2407,2.2409,2.2411,2.234,2.2408,2.2408,2.2408,2.2408,2.2408,0,2.2254,2.226,2.228,2.23,2.2316,2.2305,2.2319,2.2334,2.2356,2.2368,2.2384,2.241,2.243,2.2435,2.2453,2.2467,2.2463,2.2472,2.2471,2.2472,2.242,2.2412,2.2476,2.2476,2.2475,2.2475,2.2475,2.2475,2.2293,2.2325,2.2325,2.2362,2.2368,2.2393,2.2402,2.2413,2.2421,2.245,2.2467,2.247,2.2478,2.2497,2.2514,2.2514,2.2521,2.2532,2.2531,2.2482,2.2476,2.2469,2.2461,2.2534,2.2534,2.258,2.2581,2.2581]}]]